Regional Weather Roundup
Issued by NWS

Home | Current Version | Previous Version | Graphics & Text | Print | Product List | Glossary Off
Versions: 1 2 3 4 5 6 7 8 9 10 11 12 13 14 15 16 17 18 19 20 21 22 23 24 25 26 27 28 29 30 31 32 33 34 35 36 37 38 39 40 41 42 43 44 45 46 47 48 49 50

000
ASUS43 KLOT 260509
RWRIL

ILLINOIS REGIONAL WEATHER ROUNDUP
NATIONAL WEATHER SERVICE CHICAGO/ROMEOVILLE IL
1200 AM CDT MON JUN 26 2017

NOTE: "FAIR" INDICATES FEW OR NO CLOUDS BELOW 12,000 FEET WITH NO
SIGNIFICANT WEATHER AND/OR OBSTRUCTIONS TO VISIBILITY.

* THESE STATIONS ARE NOT UNDER NWS QUALITY CONTROL. THEY ALSO MAY NOT
  REPORT WEATHER SUCH AS PRECIPITATION OR FOG.

ILZ001-002-007-009-015-016-024-260600-
NORTHWEST ILLINOIS

CITY           SKY/WX    TMP DP  RH WIND       PRES   REMARKS
MOLINE         PTCLDY    56  50  80 SW3       30.15F
STERLING*      CLEAR     56  51  84 W3        30.14F
SAVANNA*       CLEAR     61  50  67 W3        30.14S
$$

ILZ003-004-008-010-011-017-018-260600-
NORTH CENTRAL ILLINOIS

CITY           SKY/WX    TMP DP  RH WIND       PRES   REMARKS
ROCKFORD       CLEAR     56  50  80 W6        30.14R
FREEPORT*      CLEAR     54  49  85 W5        30.14F
ROCHELLE*      CLEAR     53  50  89 W6        30.14S
DE KALB*       CLEAR     58  50  73 W8        30.13S
PERU*          CLEAR     55  49  81 W5        30.15S
$$

ILZ005-006-012>014-019>023-260600-
NORTHEAST ILLINOIS

CITY           SKY/WX    TMP DP  RH WIND       PRES   REMARKS
CHICAGO-OHARE  MOCLDY    60  49  66 NW6       30.11S
CHICAGO-MIDWAY PTCLDY    62  49  62 NW10      30.11S
AURORA         CLEAR     57  50  77 W6        30.13S
LANSING*       CLEAR     59  47  65 W6        30.12S
JOLIET*        CLEAR     60  51  73 W3        30.13S
WAUKEGAN       PTCLDY    55  53  93 W3        30.09S
DUPAGE AIRPORT PTCLDY    59  51  75 W7        30.11S
WHEELING       CLOUDY    58  53  84 W5        30.12F
MORRIS*        CLEAR     55  49  81 W5        30.12S
ROMEOVILLE*    PTCLDY    58  47  68 W6        30.12S
NORTHERLY ISL    N/A     62  46  55 N1          N/A
$$

LMZ740>746-260600-
SOUTHERN LAKE MICHIGAN

STATION/POSITION SKY/WX   TEMP    WIND        PRES    VSBY  WAVE
                          AIR SEA DIR/SP/G                  HT/PER
                          (F)     (DEG/KT/KT) (MB)    (MI)  (FT/S)
SOUTHERN BUOY              60 61  310/ 17/ 21 1017.7          3/ 4
WILMETTE HARBOR            61 64  290/ 12/ 16   N/A           2/ 3
HARRISON CRIB              61     310/ 14/ 16   N/A
BURNHAM HARBOR             61                   N/A
CALUMET HARBOR             62     280/  4/  9 1019.0S
BURNS HARBOR               64     280/ 18/ 20 1019.3S
MICHIGAN CITY              63     280/ 21/ 23   N/A
MICHIGAN CITY 6N           64 66  290/ 17/ 23   N/A           5/ 4
ST. JOSEPH                 64 69  310/ 19/ 25 1018.5          6/ 5
$$

ILZ025>027-034>036-040-047-049-050-058-095>099-260600-
WEST-CENTRAL ILLINOIS

CITY           SKY/WX    TMP DP  RH WIND       PRES   REMARKS
QUINCY         CLEAR     57  50  77 SW3       30.19S
GALESBURG*     CLEAR     51  48  92 CALM      30.18S
MACOMB*        CLEAR     53  48  83 W6        30.20S
JACKSONVILLE*  CLEAR     56  48  74 W6        30.18S
PITTSFIELD*    CLEAR     59  52  76 W3        30.21R
$$

ILZ028>032-037-038-041>044-048-051>054-059>061-260600-
CENTRAL ILLINOIS

CITY           SKY/WX    TMP DP  RH WIND       PRES   REMARKS
PONTIAC        CLEAR     57  53  88 W3        30.16S
BLOOMINGTON    CLEAR     58  50  75 W3        30.17S
DECATUR        CLEAR     62  47  57 W5        30.17S
PEORIA         CLEAR     56  53  90 CALM      30.16S
LACON*         CLEAR     54  51  91 CALM      30.15S
LINCOLN*       CLEAR     58  50  74 CALM      30.17S
SPRINGFIELD    CLEAR     57  51  80 W5        30.18S
TAYLORVILLE    CLEAR     56  48  74 CALM      30.18S
$$

ILZ033-039-045-046-055>057-062-063-260600-
EAST-CENTRAL ILLINOIS

CITY           SKY/WX    TMP DP  RH WIND       PRES   REMARKS
CHAMPAIGN        N/A    N/A N/A N/A MISG      30.17R
RANTOUL*       CLEAR     57  52  82 CALM      30.16S
MATTOON        PTCLDY    60  49  66 W5        30.17R
PARIS*         CLEAR     55  51  89 W3        30.18R
$$

ILZ079-100>102-260600-
SOUTHWEST ILLINOIS

CITY           SKY/WX    TMP DP  RH WIND       PRES   REMARKS
ALTON          CLEAR     57  53  86 CALM      30.20R
BELLEVILLE     PTCLDY    61  52  73 CALM      30.20R
CAHOKIA*       CLEAR     64  46  52 CALM      30.19R
SPARTA*        CLOUDY    66  49  53 CALM      30.20S
$$

ILZ064>066-069>071-074>076-080>082-084>086-088>090-092>094-260600-
SOUTH-CENTRAL ILLINOIS

CITY           SKY/WX    TMP DP  RH WIND       PRES   REMARKS
CARBONDALE     CLOUDY    68  55  63 N3        30.19R
CAIRO*         CLEAR     70  58  67 CALM      30.18R
EFFINGHAM*     CLEAR     59  50  74 CALM      30.20S
MARION         CLOUDY    68  52  56 N3        30.20R
MT. VERNON     CLEAR     57  54  89 CALM      30.19S
CENTRALIA*     CLEAR     57  54  88 CALM      30.18S
SALEM*         CLEAR     59  52  76 CALM      30.18S
METROPOLIS*    CLEAR     67  58  74 CALM      30.18R
$$

ILZ067-068-072-073-078-083-087-091-260600-
SOUTHEAST ILLINOIS

CITY           SKY/WX    TMP DP  RH WIND       PRES   REMARKS
LAWRENCEVILLE  CLEAR     63  50  62 W3        30.18R
FLORA*         CLEAR     60  51  70 CALM      30.19R
FAIRFIELD*     CLEAR     58  53  84 CALM      30.18R
HARRISBURG*    CLOUDY    68  51  54 CALM      30.19S
ROBINSON*      CLEAR     56  51  84 W6        30.18R
CARMI*         PTCLDY    61  55  79 NW3       30.19R
$$

ABBREVIATIONS USED IN REMARKS
   TC - TEMPERATURE IN CELSIUS
  WCI - WIND CHILL INDEX
   HX - HEAT INDEX
  VSB - VISIBILITY
$$





USA.gov is the U.S. government's official web portal to all federal, state and local government web resources and services.